When you browse on this site, cookies collect data to enhance your experience and personalize the content and advertising you see.
Visit our Privacy Policy to learn more. By continuing to use the site, you agree to this use of cookies and data.
  • In Belgium
  • List of Countries
  • For 7 days
  • Water Temperature
  • Weather Map
  • Weather Widgets
  • user-avatar
    Login

    Hourly Weather Haradok

    Today, 31 May, Sunday

    Time Temperature Precipitation Wind Pressure Humidity
    00:00 +15°C° 0 mm 8 mps 744 mmHg 72%
    01:00 +14°C° 0 mm 7 mps 744 mmHg 70%
    02:00 +14°C° 0 mm 7 mps 744 mmHg 69%
    03:00 +12°C° 0.2 mm 7 mps 744 mmHg 71%
    04:00 +11°C° 0.2 mm 8 mps 744 mmHg 73%
    05:00 +11°C° 0.2 mm 8 mps 744 mmHg 74%
    06:00 +11°C° 0.2 mm 8 mps 744 mmHg 75%
    07:00 +11°C° 0.2 mm 7 mps 745 mmHg 76%
    08:00 +11°C° 0.2 mm 7 mps 745 mmHg 76%
    09:00 +12°C° 0 mm 7 mps 746 mmHg 70%
    10:00 +14°C° 0 mm 7 mps 746 mmHg 64%
    11:00 +16°C° 0 mm 7 mps 747 mmHg 59%
    12:00 +17°C° 0 mm 7 mps 747 mmHg 56%
    13:00 +18°C° 0 mm 7 mps 747 mmHg 53%
    14:00 +18°C° 0 mm 7 mps 747 mmHg 50%
    15:00 +18°C° 0 mm 7 mps 747 mmHg 52%
    16:00 +17°C° 0 mm 6 mps 747 mmHg 53%
    17:00 +17°C° 0 mm 6 mps 747 mmHg 55%
    18:00 +15°C° 0 mm 6 mps 748 mmHg 57%
    19:00 +14°C° 0 mm 5 mps 748 mmHg 58%
    20:00 +12°C° 0 mm 5 mps 749 mmHg 59%
    21:00 +10°C° 0 mm 5 mps 749 mmHg 59%
    22:00 +9°C° 0 mm 5 mps 749 mmHg 58%
    23:00 +8°C° 0 mm 5 mps 750 mmHg 57%

    Tomorrow, 1 June, Monday

    Time Temperature Precipitation Wind Pressure Humidity
    00:00 +7°C° 0 mm 5 mps 750 mmHg 62%
    01:00 +6°C° 0 mm 4 mps 750 mmHg 67%
    02:00 +5°C° 0 mm 4 mps 750 mmHg 72%
    03:00 +5°C° 0 mm 4 mps 750 mmHg 73%
    04:00 +5°C° 0 mm 4 mps 750 mmHg 74%
    05:00 +5°C° 0 mm 4 mps 750 mmHg 75%
    06:00 +6°C° 0 mm 5 mps 750 mmHg 70%
    07:00 +7°C° 0 mm 5 mps 750 mmHg 64%
    08:00 +9°C° 0 mm 6 mps 750 mmHg 59%
    09:00 +9°C° 0 mm 6 mps 750 mmHg 56%
    10:00 +10°C° 0 mm 6 mps 750 mmHg 53%
    11:00 +11°C° 0 mm 6 mps 750 mmHg 51%
    12:00 +11°C° 0 mm 6 mps 750 mmHg 53%
    13:00 +11°C° 0 mm 6 mps 750 mmHg 55%
    14:00 +11°C° 0 mm 6 mps 750 mmHg 57%
    15:00 +11°C° 0.1 mm 6 mps 749 mmHg 60%
    16:00 +12°C° 0.1 mm 5 mps 749 mmHg 64%
    17:00 +12°C° 0.1 mm 5 mps 749 mmHg 67%
    18:00 +11°C° 0.1 mm 4 mps 749 mmHg 70%
    19:00 +10°C° 0.1 mm 4 mps 749 mmHg 74%
    20:00 +10°C° 0.1 mm 3 mps 749 mmHg 77%
    21:00 +9°C° 0 mm 3 mps 749 mmHg 79%
    22:00 +7°C° 0 mm 4 mps 749 mmHg 82%
    23:00 +6°C° 0 mm 4 mps 749 mmHg 84%

    Day after tomorrow, 2 June, Tuesday

    Time Temperature Precipitation Wind Pressure Humidity
    00:00 +6°C° 0 mm 4 mps 748 mmHg 87%
    01:00 +5°C° 0 mm 4 mps 748 mmHg 90%
    02:00 +5°C° 0 mm 4 mps 748 mmHg 93%
    03:00 +5°C° 0 mm 4 mps 747 mmHg 90%
    04:00 +5°C° 0 mm 5 mps 747 mmHg 88%
    05:00 +6°C° 0 mm 5 mps 747 mmHg 85%
    06:00 +7°C° 0 mm 6 mps 747 mmHg 78%
    07:00 +9°C° 0 mm 6 mps 746 mmHg 70%
    08:00 +10°C° 0 mm 7 mps 746 mmHg 63%
    09:00 +11°C° 0 mm 7 mps 746 mmHg 60%
    10:00 +12°C° 0 mm 8 mps 746 mmHg 56%
    11:00 +15°C° 0 mm 8 mps 746 mmHg 53%
    12:00 +12°C° 0.3 mm 7 mps 745 mmHg 61%
    13:00 +11°C° 0.3 mm 7 mps 745 mmHg 69%
    14:00 +10°C° 0.3 mm 6 mps 744 mmHg 77%
    15:00 +10°C° 0 mm 6 mps 744 mmHg 76%
    16:00 +10°C° 0 mm 6 mps 744 mmHg 74%
    17:00 +11°C° 0 mm 6 mps 744 mmHg 73%
    18:00 +10°C° 0 mm 6 mps 744 mmHg 73%
    19:00 +10°C° 0 mm 6 mps 744 mmHg 74%
    20:00 +10°C° 0 mm 6 mps 743 mmHg 74%
    21:00 +9°C° 0 mm 6 mps 743 mmHg 76%
    22:00 +9°C° 0 mm 6 mps 743 mmHg 77%
    23:00 +9°C° 0 mm 6 mps 743 mmHg 78%

    3 June, Wednesday

    Time Temperature Precipitation Wind Pressure Humidity
    00:00 +9°C° 0.2 mm 5 mps 742 mmHg 83%
    01:00 +8°C° 0.2 mm 5 mps 742 mmHg 88%
    02:00 +8°C° 0.2 mm 5 mps 742 mmHg 93%
    03:00 +8°C° 1.6 mm 5 mps 741 mmHg 94%
    04:00 +9°C° 1.6 mm 5 mps 741 mmHg 95%
    05:00 +9°C° 1.6 mm 5 mps 741 mmHg 97%
    06:00 +9°C° 0.8 mm 5 mps 741 mmHg 96%
    07:00 +10°C° 0.8 mm 5 mps 741 mmHg 95%
    08:00 +11°C° 0.8 mm 4 mps 741 mmHg 95%
    09:00 +12°C° 0.6 mm 4 mps 741 mmHg 90%
    10:00 +13°C° 0.6 mm 4 mps 742 mmHg 86%
    11:00 +14°C° 0.6 mm 4 mps 742 mmHg 82%
    12:00 +15°C° 0.2 mm 4 mps 742 mmHg 74%
    13:00 +17°C° 0.2 mm 3 mps 742 mmHg 66%
    14:00 +19°C° 0.2 mm 3 mps 742 mmHg 59%
    15:00 +18°C° 0.2 mm 3 mps 742 mmHg 61%
    16:00 +18°C° 0.2 mm 3 mps 742 mmHg 64%
    17:00 +18°C° 0.2 mm 3 mps 741 mmHg 66%
    18:00 +16°C° 0.2 mm 3 mps 742 mmHg 73%
    19:00 +14°C° 0.2 mm 3 mps 742 mmHg 80%
    20:00 +13°C° 0.2 mm 2 mps 742 mmHg 87%
    21:00 +12°C° 0.1 mm 2 mps 742 mmHg 90%
    22:00 +10°C° 0.1 mm 2 mps 742 mmHg 92%
    23:00 +9°C° 0.1 mm 3 mps 742 mmHg 94%

    4 June, Thursday

    Time Temperature Precipitation Wind Pressure Humidity
    00:00 +9°C° 0 mm 3 mps 742 mmHg 94%
    01:00 +9°C° 0 mm 3 mps 742 mmHg 95%
    02:00 +8°C° 0 mm 3 mps 741 mmHg 95%
    03:00 +8°C° 0 mm 3 mps 742 mmHg 95%
    04:00 +9°C° 0 mm 3 mps 742 mmHg 95%
    05:00 +9°C° 0 mm 3 mps 742 mmHg 95%
    06:00 +10°C° 0 mm 3 mps 742 mmHg 89%
    07:00 +12°C° 0 mm 3 mps 742 mmHg 84%
    08:00 +14°C° 0 mm 4 mps 742 mmHg 79%
    09:00 +15°C° 0.1 mm 4 mps 742 mmHg 74%
    10:00 +17°C° 0.1 mm 4 mps 742 mmHg 70%
    11:00 +18°C° 0.1 mm 4 mps 742 mmHg 65%
    12:00 +18°C° 0.4 mm 4 mps 742 mmHg 67%
    13:00 +18°C° 0.4 mm 3 mps 741 mmHg 68%
    14:00 +18°C° 0.4 mm 3 mps 741 mmHg 69%
    15:00 +18°C° 0.8 mm 3 mps 741 mmHg 73%
    16:00 +17°C° 0.8 mm 2 mps 741 mmHg 76%
    17:00 +17°C° 0.8 mm 2 mps 740 mmHg 80%
    18:00 +16°C° 0.3 mm 2 mps 740 mmHg 84%
    19:00 +14°C° 0.3 mm 2 mps 740 mmHg 88%
    20:00 +13°C° 0.3 mm 1 mps 740 mmHg 92%
    21:00 +12°C° 0 mm 1 mps 740 mmHg 93%
    22:00 +12°C° 0 mm 1 mps 740 mmHg 93%
    23:00 +11°C° 0 mm 1 mps 740 mmHg 94%

    5 June, Friday

    Time Temperature Precipitation Wind Pressure Humidity
    00:00 +10°C° 0 mm 1 mps 740 mmHg 94%
    01:00 +10°C° 0 mm 1 mps 739 mmHg 94%
    02:00 +8°C° 0 mm 0 mps 739 mmHg 94%
    03:00 +9°C° 0 mm 0 mps 739 mmHg 94%
    04:00 +9°C° 0 mm 0 mps 739 mmHg 94%
    05:00 +10°C° 0 mm 0 mps 739 mmHg 93%
    06:00 +12°C° 0 mm 0 mps 739 mmHg 88%
    07:00 +13°C° 0 mm 0 mps 739 mmHg 83%
    08:00 +15°C° 0 mm 0 mps 739 mmHg 78%
    09:00 +16°C° 0.9 mm 0 mps 739 mmHg 74%
    10:00 +18°C° 0.9 mm 0 mps 739 mmHg 69%
    11:00 +19°C° 0.9 mm 0 mps 739 mmHg 65%
    12:00 +19°C° 0.7 mm 0 mps 739 mmHg 62%
    13:00 +20°C° 0.7 mm 0 mps 739 mmHg 60%
    14:00 +20°C° 0.7 mm 0 mps 739 mmHg 58%
    15:00 +22°C° 0.3 mm 1 mps 739 mmHg 59%
    16:00 +22°C° 0.3 mm 1 mps 739 mmHg 60%
    17:00 +21°C° 0.3 mm 1 mps 739 mmHg 61%
    18:00 +20°C° 0.1 mm 1 mps 739 mmHg 68%
    19:00 +18°C° 0.1 mm 1 mps 739 mmHg 75%
    20:00 +15°C° 0.1 mm 1 mps 739 mmHg 82%
    21:00 +15°C° 0 mm 1 mps 739 mmHg 84%
    22:00 +14°C° 0 mm 1 mps 739 mmHg 86%
    23:00 +13°C° 0 mm 1 mps 740 mmHg 88%
    Show more